| time (UTC) | temp C | wind direction | speed KPH | gust KPH | rain 1hr cm | rain 24hr cm | rain mn cm | humidity % | barometer mb |
| 20260903204510 | 19 | 230 | 12.9 | 0.0 | 0.00 | 0.00 | 0.00 | 71 | 1008.6 |
| 20260903203009 | 19 | 230 | 12.9 | 0.0 | 0.00 | 0.00 | 0.00 | 71 | 1008.6 |
| 20260903201510 | 19 | 230 | 12.9 | 0.0 | 0.00 | 0.00 | 0.00 | 72 | 1008.5 |
| 20260903200009 | 19 | 230 | 11.3 | 0.0 | 0.00 | 0.00 | 0.00 | 72 | 1008.5 |
| 20260903194510 | 19 | 230 | 11.3 | 0.0 | 0.00 | 0.00 | 0.00 | 75 | 1008.5 |
| 20260903193009 | 19 | 240 | 9.7 | 0.0 | 0.00 | 0.00 | 0.00 | 75 | 1008.5 |
| 20260903191509 | 18 | 240 | 9.7 | 0.0 | 0.00 | 0.00 | 0.00 | 77 | 1008.6 |
| 20260903190010 | 18 | 240 | 9.7 | 0.0 | 0.00 | 0.00 | 0.00 | 77 | 1008.6 |
| 20260903184509 | 19 | 240 | 9.7 | 0.0 | 0.00 | 0.00 | 0.00 | 78 | 1008.6 |
| 20260903183009 | 19 | 250 | 9.7 | 0.0 | 0.00 | 0.00 | 0.00 | 78 | 1008.6 |
| 20260903181509 | 18 | 250 | 9.7 | 0.0 | 0.00 | 0.00 | 0.00 | 81 | 1008.4 |
| 20260903180009 | 18 | 250 | 8.0 | 0.0 | 0.00 | 0.00 | 0.00 | 81 | 1008.4 |
| 20260903174509 | 18 | 270 | 6.4 | 0.0 | 0.00 | 0.00 | 0.00 | 84 | 1008.2 |
| 20260903173009 | 18 | 270 | 6.4 | 0.0 | 0.00 | 0.00 | 0.00 | 84 | 1008.2 |
| 20260903171509 | 18 | 270 | 6.4 | 0.0 | 0.00 | 0.00 | 0.00 | 85 | 1008.3 |
| 20260903170009 | 18 | 270 | 6.4 | 0.0 | 0.00 | 0.00 | 0.00 | 85 | 1008.3 |
| 20260903164509 | 18 | 270 | 6.4 | 0.0 | 0.00 | 0.00 | 0.00 | 85 | 1008.5 |
| 20260903163009 | 18 | 240 | 12.9 | 0.0 | 0.00 | 0.00 | 0.00 | 85 | 1008.5 |
| 20260903161509 | 22 | 240 | 12.9 | 0.0 | 0.00 | 0.00 | 0.00 | 55 | 1008.3 |
| 20260903160009 | 22 | 240 | 16.1 | 0.0 | 0.00 | 0.00 | 0.00 | 55 | 1008.3 |
| 20260903154509 | 22 | 250 | 16.1 | 0.0 | 0.00 | 0.00 | 0.00 | 53 | 1008.4 |
| 20260903153010 | 22 | 250 | 16.1 | 0.0 | 0.00 | 0.00 | 0.00 | 53 | 1008.4 |
| 20260903151509 | 22 | 250 | 16.1 | 0.0 | 0.00 | 0.00 | 0.00 | 54 | 1008.5 |
| 20260903150010 | 22 | 240 | 9.7 | 0.0 | 0.00 | 0.00 | 0.00 | 54 | 1008.5 |
| 20260903144509 | 21 | 240 | 9.7 | 0.0 | 0.00 | 0.00 | 0.00 | 59 | 1008.8 |
| 20260903143009 | 21 | 250 | 19.3 | 0.0 | 0.00 | 0.00 | 0.00 | 59 | 1008.8 |
| 20260903141510 | 22 | 250 | 19.3 | 0.0 | 0.00 | 0.00 | 0.00 | 50 | 1008.6 |
| 20260903140009 | 22 | 240 | 20.9 | 0.0 | 0.00 | 0.00 | 0.00 | 50 | 1008.6 |
| 20260903134510 | 22 | 240 | 20.9 | 0.0 | 0.00 | 0.00 | 0.00 | 51 | 1008.8 |
| 20260903133010 | 22 | 230 | 19.3 | 0.0 | 0.00 | 0.00 | 0.00 | 51 | 1008.8 |
| 20260903131509 | 22 | 230 | 19.3 | 0.0 | 0.00 | 0.00 | 0.00 | 51 | 1009.0 |
| 20260903130010 | 22 | 230 | 20.9 | 0.0 | 0.00 | 0.00 | 0.00 | 51 | 1009.0 |
| 20260903124509 | 21 | 230 | 20.9 | 0.0 | 0.00 | 0.00 | 0.00 | 53 | 1009.5 |
| 20260903123010 | 21 | 230 | 17.7 | 0.0 | 0.00 | 0.00 | 0.00 | 53 | 1009.5 |
| 20260903121510 | 21 | 230 | 17.7 | 0.0 | 0.00 | 0.00 | 0.00 | 53 | 1009.7 |
| 20260903120010 | 21 | 220 | 16.1 | 0.0 | 0.00 | 0.00 | 0.00 | 53 | 1009.7 |
| 20260903114510 | 21 | 220 | 16.1 | 0.0 | 0.00 | 0.00 | 0.00 | 54 | 1010.0 |
| 20260903113009 | 21 | 220 | 14.5 | 0.0 | 0.00 | 0.00 | 0.00 | 54 | 1010.0 |
| 20260903111510 | 20 | 220 | 14.5 | 0.0 | 0.00 | 0.00 | 0.00 | 55 | 1010.5 |
| 20260903110009 | 20 | 220 | 12.9 | 0.0 | 0.00 | 0.00 | 0.00 | 55 | 1010.5 |
| 20260903104510 | 20 | 220 | 12.9 | 0.0 | 0.00 | 0.00 | 0.00 | 56 | 1010.9 |
| 20260903103010 | 20 | 220 | 16.1 | 0.0 | 0.00 | 0.00 | 0.00 | 56 | 1010.9 |
| 20260903101509 | 20 | 220 | 16.1 | 0.0 | 0.00 | 0.00 | 0.00 | 60 | 1011.2 |
| 20260903100009 | 20 | 220 | 12.9 | 0.0 | 0.00 | 0.00 | 0.00 | 60 | 1011.2 |
| 20260903094509 | 19 | 210 | 11.3 | 0.0 | 0.00 | 0.00 | 0.00 | 61 | 1011.3 |
| 20260903093009 | 19 | 210 | 11.3 | 0.0 | 0.00 | 0.00 | 0.00 | 61 | 1011.3 |
| 20260903091511 | 18 | 210 | 11.3 | 0.0 | 0.00 | 0.00 | 0.00 | 63 | 1011.6 |
| 20260903090009 | 18 | 220 | 12.9 | 0.0 | 0.00 | 0.00 | 0.00 | 63 | 1011.6 |
| 20260903084509 | 17 | 220 | 11.3 | 0.0 | 0.00 | 0.00 | 0.00 | 67 | 1011.9 |
| 20260903083009 | 17 | 220 | 11.3 | 0.0 | 0.00 | 0.00 | 0.00 | 67 | 1011.9 |
| 20260903081509 | 17 | 220 | 9.7 | 0.0 | 0.00 | 0.00 | 0.00 | 68 | 1012.0 |
| 20260903080009 | 17 | 220 | 9.7 | 0.0 | 0.00 | 0.00 | 0.00 | 68 | 1012.0 |
| 20260903074509 | 16 | 220 | 9.7 | 0.0 | 0.00 | 0.00 | 0.00 | 72 | 1012.1 |
| 20260903073009 | 16 | 220 | 8.0 | 0.0 | 0.00 | 0.00 | 0.00 | 72 | 1012.1 |
| 20260903071509 | 15 | 220 | 8.0 | 0.0 | 0.00 | 0.00 | 0.00 | 76 | 1012.3 |
| 20260903070010 | 15 | 200 | 6.4 | 0.0 | 0.00 | 0.00 | 0.00 | 76 | 1012.3 |
| 20260903064509 | 15 | 220 | 6.4 | 0.0 | 0.00 | 0.00 | 0.00 | 77 | 1012.3 |
| 20260903063009 | 15 | 220 | 6.4 | 0.0 | 0.00 | 0.00 | 0.00 | 77 | 1012.3 |
| 20260903061509 | 15 | 220 | 6.4 | 0.0 | 0.00 | 0.00 | 0.00 | 77 | 1012.6 |
| 20260903060009 | 15 | 220 | 8.0 | 0.0 | 0.00 | 0.00 | 0.00 | 77 | 1012.6 |
| 20260903054509 | 14 | 220 | 8.0 | 0.0 | 0.00 | 0.00 | 0.00 | 78 | 1012.3 |
| 20260903053010 | 14 | 220 | 8.0 | 0.0 | 0.00 | 0.00 | 0.00 | 78 | 1012.3 |
| 20260903051509 | 14 | 220 | 8.0 | 0.0 | 0.00 | 0.00 | 0.00 | 79 | 1012.3 |
| 20260903050010 | 14 | 210 | 6.4 | 0.0 | 0.00 | 0.00 | 0.00 | 79 | 1012.3 |
| 20260903044509 | 14 | 210 | 3.2 | 0.0 | 0.00 | 0.00 | 0.00 | 79 | 1012.4 |
| 20260903043010 | 14 | 210 | 3.2 | 0.0 | 0.00 | 0.00 | 0.00 | 79 | 1012.4 |
| 20260903041510 | 14 | 230 | 3.2 | 0.0 | 0.00 | 0.00 | 0.00 | 81 | 1012.7 |
| 20260903040010 | 14 | 230 | 3.2 | 0.0 | 0.00 | 0.00 | 0.00 | 81 | 1012.7 |
| 20260903034509 | 14 | 220 | 1.6 | 0.0 | 0.00 | 0.00 | 0.00 | 81 | 1012.6 |
| 20260903033009 | 14 | 220 | 1.6 | 0.0 | 0.00 | 0.00 | 0.00 | 81 | 1012.6 |
| 20260903031510 | 15 | 220 | 1.6 | 0.0 | 0.00 | 0.00 | 0.00 | 78 | 1012.7 |
| 20260903030009 | 15 | 230 | 3.2 | 0.0 | 0.00 | 0.00 | 0.00 | 78 | 1012.7 |